TimePDT,TemperatureF,Dew PointF,Humidity,Sea Level PressureIn,VisibilityMPH,Wind Direction,Wind SpeedMPH,Gust SpeedMPH,PrecipitationIn,Events,Conditions,WindDirDegrees,DateUTC
12:53 AM,61.0,55.0,81,29.85,7.0,West,4.6,-,N/A,,Clear,270,2009-05-11 07:53:00
1:53 AM,59.0,54.0,83,29.85,4.0,West,5.8,-,N/A,,Haze,270,2009-05-11 08:53:00
2:53 AM,57.9,54.0,87,29.85,4.0,West,4.6,-,N/A,,Clear,260,2009-05-11 09:53:00
3:53 AM,57.0,54.0,89,29.85,3.0,West,5.8,-,N/A,,Clear,260,2009-05-11 10:53:00
4:53 AM,55.9,54.0,93,29.85,3.0,West,4.6,-,N/A,,Scattered Clouds,270,2009-05-11 11:53:00
5:06 AM,55.4,53.6,94,29.87,2.5,West,3.5,-,N/A,,Scattered Clouds,280,2009-05-11 12:06:00
5:15 AM,55.4,53.6,94,29.88,2.5,West,4.6,-,N/A,,Mostly Cloudy,270,2009-05-11 12:15:00
5:53 AM,57.0,55.0,93,29.86,2.0,West,4.6,-,N/A,,Overcast,280,2009-05-11 12:53:00
6:15 AM,57.2,55.4,94,29.89,1.8,West,3.5,-,N/A,,Overcast,260,2009-05-11 13:15:00
6:53 AM,57.9,55.0,90,29.88,1.8,West,4.6,-,N/A,,Overcast,260,2009-05-11 13:53:00
7:15 AM,57.2,55.4,94,29.92,2.0,West,5.8,-,N/A,,Overcast,270,2009-05-11 14:15:00
7:53 AM,59.0,55.0,87,29.91,2.5,WSW,6.9,-,N/A,,Overcast,250,2009-05-11 14:53:00
8:53 AM,59.0,55.0,87,29.92,2.5,WSW,5.8,-,N/A,,Overcast,240,2009-05-11 15:53:00
9:50 AM,60.8,55.4,82,29.94,3.0,SSW,3.5,-,N/A,,Haze,210,2009-05-11 16:50:00
9:51 AM,60.8,55.4,82,29.94,3.0,SSW,3.5,-,N/A,,Haze,200,2009-05-11 16:51:00
9:53 AM,60.1,55.0,83,29.92,3.0,South,3.5,-,N/A,,Haze,190,2009-05-11 16:53:00
10:43 AM,64.4,55.4,73,29.94,3.0,WSW,5.8,-,N/A,,Haze,240,2009-05-11 17:43:00
10:53 AM,64.9,55.0,70,29.92,4.0,WSW,4.6,-,N/A,,Haze,240,2009-05-11 17:53:00
11:53 AM,71.1,55.0,57,29.90,4.0,South,3.5,-,N/A,,Haze,190,2009-05-11 18:53:00
12:53 PM,75.9,55.0,48,29.87,5.0,West,8.1,-,N/A,,Haze,260,2009-05-11 19:53:00
1:53 PM,80.1,51.1,36,29.86,10.0,WSW,9.2,18.4,N/A,,Clear,250,2009-05-11 20:53:00
2:53 PM,82.0,51.1,34,29.83,10.0,West,8.1,-,N/A,,Clear,270,2009-05-11 21:53:00
3:53 PM,82.9,50.0,32,29.82,10.0,West,10.4,17.3,N/A,,Clear,270,2009-05-11 22:53:00
4:53 PM,80.1,54.0,40,29.81,8.0,WSW,12.7,18.4,N/A,,Clear,240,2009-05-11 23:53:00
5:53 PM,77.0,53.1,43,29.81,10.0,WSW,12.7,-,N/A,,Partly Cloudy,240,2009-05-12 00:53:00
6:53 PM,73.0,54.0,51,29.81,10.0,WSW,11.5,-,N/A,,Clear,240,2009-05-12 01:53:00
7:53 PM,69.1,55.0,61,29.83,10.0,West,9.2,-,N/A,,Partly Cloudy,260,2009-05-12 02:53:00
8:53 PM,64.9,55.0,70,29.86,8.0,West,11.5,-,N/A,,Partly Cloudy,270,2009-05-12 03:53:00
9:53 PM,63.0,54.0,72,29.87,6.0,WSW,6.9,-,N/A,,Haze,250,2009-05-12 04:53:00
10:53 PM,62.1,54.0,75,29.88,5.0,West,4.6,-,N/A,,Haze,260,2009-05-12 05:53:00
11:53 PM,60.1,54.0,80,29.88,5.0,WSW,4.6,-,N/A,,Haze,250,2009-05-12 06:53:00